SL-24 R/B

Satellite information

Favourite Embed

Satellite Type and Status

ROCKET BODYIN ORBIT

Key statistics

Satellite SL-24 R/B at a glance.

Uptime

4056

Days in orbit

Revolutions

≈ 13.2

Per day

Orbit

SSO

Sun Synchronous Orbit

Inclination

97.2

Latest

Satellite identification and parameters

Extended collection of information and parameters for SL-24 R/B.

Object identification

Identified? True

Debris? False

Object name: SL-24 R/B

International designator: 2014-070F

Object number (NORAD): 40303

Object ID (CCSDS): 40303

Country: COMMONWEALTH OF INDEPENDENT STATES (CIS)

Current information (Y/N): Y

RCS size: LARGE

Orbital parameters

Period: 109.494 minutes

Inclination: 97.1617 deg

SMA: 7581.463 km

Apoapsis: 1921.612 km

Periapsis: 485.044 km

RAAN: 295.337 deg

Eccentricy: 0.0947422

Argument of periapsis: 303.6788 deg

Mean anomaly: 47.7442 deg

Mean motion: 13.15143767 rev/day

Mean motion (dot): 0.0000098 rev/day2

B* drag term: 0.00023478 1/REarth

Two-line elements (TLE)

Creation date: Dec. 12, 2025, 7:16 a.m.

Reference frame: TEME

Reference center: EARTH

Epoch: Dec. 11, 2025, 8:41 p.m. UTC

TLE line 0: 0 SL-24 R/B

TLE line 1: 1 40303U 14070F 25345.86184235 .00000980 00000-0 23478-3 0 9992

TLE line 2: 2 40303 97.1617 295.3370 0947422 303.6788 47.7442 13.15143767532001

Live tracking on map

Real-time ground track for satellite SL-24 R/B.

In-orbit conjunctions

A list of the most updated potential collisions computed for object SL-24 R/B.

Target Orbit TCA Probability of collision Miss distance Type
TITAN 4B R/B LEO 2024-11-14 12:01:21 0.002685295 604.0 (m) ROCKET BODY
METEOR 2-7 LEO 2024-10-12 14:54:20 0.0003995611 886.0 (m) PAYLOAD

Associated space launch

SL-24 R/B was lifted into orbit during the mission ‘Dnepr 1 | ASNARO’, on board a Dnepr space rocket.

The launch took place on Nov. 6, 2014, 7:35 a.m. from 370/13.

For more information about the launch, click the button.

Launch to space Dnepr 1 | ASNARO
Dnepr 1 | ASNARO

Agency: N/A

Status: Launch Successful

Launch date: Nov. 6, 2014, 7:35 a.m. UTC

Rocket: Dnepr

Launch pad: 370/13

Location: Dombarovskiy, Russian Federation

...

Latest news about this satellite

There are no fresh news available about this satellite. Check back as we update our databases every day.


Newsletter sign-up

Weekly statistics, charts and insights to help you stay on top of the space industry.